Theta_e
279 279 279 279 279 279 279 279 278 279 279 278 278 278 278 278 278 277 277 277 276 277 277 277 277 277 276 275 276 276 275 275 272 273 276 277 276 276 277 278 278 277 277
280 279 279 279 279 278 278 279 279 279 279 279 279 278 278 278 278 277 276 277 276 276 276 276 276 278 276 275 275 275 274 274 273 271 274 274 274 276 276 276 277 277 276
280 279 279 279 278 278 278 279 279 277 277 278 278 278 278 278 277 277 277 277 276 276 276 276 276 276 275 275 274 274 274 275 274 273 272 274 274 275 275 275 275 275 276
280 279 278 278 279 278 279 279 279 278 276 275 275 276 276 276 278 277 278 276 276 276 277 277 276 276 275 275 275 274 275 274 274 273 272 272 273 274 274 272 272 274 273
279 278 279 279 279 279 278 278 278 278 278 276 273 272 273 274 276 275 277 275 275 275 276 277 278 277 279 278 276 275 274 274 273 273 272 272 270 271 273 274 272 272 272
278 278 279 279 279 279 279 278 278 278 278 278 275 274 273 276 280 283 282 276 277 276 276 276 277 276 276 280 281 281 280 275 274 273 273 272 271 273 274 273 272 270 267
276 276 277 278 278 277 277 277 277 276 276 276 274 273 270 273 281 283 283 280 277 276 275 276 276 276 275 276 277 279 279 279 279 276 273 273 272 273 274 273 272 269 268
273 273 273 274 274 274 273 272 272 273 271 269 268 268 267 271 280 281 282 276 273 274 273 273 273 274 273 273 272 272 272 273 274 275 274 274 274 275 275 276 271 265 266
269 269 269 271 271 271 271 269 268 267 265 265 267 267 266 268 278 279 279 273 275 272 271 270 271 272 275 279 276 274 273 272 276 279 280 280 281 281 280 272 264 262 262
266 267 267 268 269 268 268 268 268 264 265 267 266 265 267 266 275 278 278 275 273 274 276 267 274 272 276 279 277 275 272 273 272 271 272 274 277 271 277 273 269 263 261
264 265 266 266 268 268 268 267 265 263 264 261 263 264 265 264 267 277 278 275 272 273 273 273 267 276 278 279 280 277 276 277 277 276 274 272 269 268 268 268 266 265 261
262 262 262 263 266 266 265 265 264 264 263 261 261 262 265 267 271 274 276 277 276 273 272 274 270 277 278 279 279 279 280 280 277 276 269 266 266 266 265 263 263 262 263
259 259 259 261 263 263 263 262 263 262 262 262 264 264 264 266 265 273 273 275 275 273 274 275 278 278 278 277 277 278 276 274 273 267 267 267 263 263 254 253 252 256 258
257 257 259 258 259 260 263 263 263 261 261 263 263 263 264 265 265 267 269 270 273 272 273 271 273 275 276 275 272 272 272 272 271 270 269 270 257 254 255 256 253 253 254
257 257 257 259 258 260 261 261 262 263 265 264 264 265 264 264 266 271 271 270 270 272 272 270 268 268 268 268 268 269 269 269 268 268 268 267 263 260 260 253 252 251 252
257 257 257 258 258 259 258 258 262 265 266 268 269 268 267 269 270 271 272 272 272 273 268 262 261 262 262 263 263 264 266 268 269 269 268 267 264 262 257 253 251 249 255
253 256 256 256 257 256 256 256 255 258 263 264 265 266 267 268 269 269 270 270 271 268 258 257 258 258 259 260 261 262 263 264 265 266 266 263 263 261 254 253 252 253 255
250 253 254 254 254 254 254 254 254 253 253 255 260 262 265 266 266 267 268 268 257 258 251 256 256 258 258 259 259 260 261 262 263 264 264 263 261 260 256 255 256 255 255
250 251 250 250 250 251 252 252 252 251 252 253 254 257 258 262 263 265 265 253 255 255 254 254 256 256 257 258 259 260 260 261 261 262 261 258 257 256 257 257 257 257 256
244 248 249 247 247 248 249 249 250 250 251 251 252 252 253 254 254 256 252 248 250 253 254 254 255 256 257 258 257 259 260 260 260 255 254 257 259 259 258 257 257 256 255
244 245 247 246 245 247 247 247 250 250 250 251 252 254 261 259 256 254 253 254 253 254 254 255 256 256 257 257 258 258 258 258 259 256 258 259 259 258 256 257 256 255 254
243 244 244 244 248 248 248 249 250 250 250 251 252 253 259 255 253 253 254 254 255 255 255 256 256 256 257 257 257 258 257 257 258 258 258 259 258 257 257 255 254 253 251
243 244 245 246 247 248 248 249 249 250 250 251 252 252 253 253 253 253 253 254 255 255 256 256 256 256 258 258 259 258 257 257 258 258 257 257 257 256 256 254 253 251 250
242 244 245 246 246 247 247 248 249 250 251 251 251 251 252 252 252 252 253 253 254 255 256 256 257 257 258 258 259 259 259 259 258 258 257 257 256 256 255 254 252 251 249
242 243 244 245 245 246 248 249 249 250 250 250 250 251 251 252 252 252 253 254 254 255 256 257 258 258 258 258 258 258 258 259 258 258 257 257 256 255 254 253 252 250 248
244 244 244 246 246 246 247 247 248 249 249 250 250 251 252 252 252 253 254 255 255 256 256 257 257 257 257 258 258 259 259 261 260 260 259 257 256 254 253 252 251 250 250
Wind_Speed
8 7 7 7 6 6 6 6 6 4 6 6 5 5 5 5 4 3 3 2 2 3 3 3 4 3 3 3 2 2 3 2 5 5 4 6 9 7 9 8 9 9 9
10 7 8 7 7 7 7 7 6 7 6 6 5 5 5 5 5 5 5 3 4 4 5 4 5 4 5 4 3 4 3 4 4 9 6 4 7 7 9 9 8 8 9
8 9 7 7 7 8 7 7 6 5 4 5 5 6 6 6 5 6 5 5 5 5 5 5 6 5 6 4 4 4 4 6 5 6 7 4 5 6 7 7 8 9 9
8 8 8 9 8 7 7 7 6 6 5 5 5 6 5 5 5 6 6 6 6 6 7 7 7 7 8 6 6 6 6 6 6 7 7 7 5 6 6 6 8 7 8
6 6 9 7 6 6 6 6 6 6 5 4 3 3 4 4 5 5 7 6 7 8 8 9 8 8 14 12 6 7 7 7 6 7 8 7 4 5 8 6 9 8 8
7 6 3 4 4 5 5 5 4 4 4 3 3 4 5 5 11 14 10 7 8 8 9 8 8 9 11 18 19 20 14 8 9 8 9 8 10 8 7 8 9 8 7
9 7 7 4 4 4 4 3 4 4 4 4 3 2 5 5 12 14 15 6 6 8 9 8 7 7 8 9 14 19 19 19 19 12 12 11 12 9 10 12 9 4 8
10 9 9 8 7 6 7 6 5 4 3 3 4 4 4 5 13 15 15 5 5 7 7 7 9 10 9 8 9 11 12 11 12 10 12 11 12 11 12 11 2 6 6
10 10 8 7 6 6 6 5 3 3 3 2 3 5 4 6 14 15 13 4 6 6 6 6 7 10 15 20 13 13 13 11 14 23 24 24 25 24 17 2 3 4 9
8 7 6 6 6 5 4 4 2 2 3 3 5 4 6 6 13 15 13 4 6 6 6 5 13 11 19 22 14 12 14 13 10 10 10 15 17 8 12 4 2 6 5
5 6 6 6 4 5 5 3 3 3 4 4 4 5 5 4 7 15 16 6 4 7 7 6 4 17 20 22 23 13 14 14 14 12 10 8 4 4 4 5 6 6 5
5 6 6 6 6 5 5 5 4 4 4 4 4 4 3 5 11 13 17 17 17 8 9 7 5 18 22 23 20 22 25 23 11 9 3 3 5 6 6 5 7 6 7
6 6 5 6 7 7 5 5 4 4 4 5 5 4 4 4 3 16 19 19 18 12 9 16 27 27 26 20 24 26 22 10 10 6 8 8 6 6 3 2 4 6 8
5 5 4 4 5 4 4 5 5 5 6 6 6 7 7 6 5 6 7 8 12 12 15 11 16 22 23 20 12 12 8 9 10 10 10 9 1 2 2 3 2 2 3
3 3 4 4 5 5 5 5 5 4 7 7 6 7 7 8 8 19 17 11 11 14 18 10 9 8 9 8 8 8 8 8 8 8 9 8 5 2 3 3 2 1 4
4 4 4 4 4 5 5 6 10 12 15 16 16 13 8 18 23 24 24 25 26 27 9 7 9 8 9 10 10 11 10 11 10 8 8 6 7 4 3 1 1 3 7
4 4 3 4 5 5 5 5 7 9 15 14 16 18 20 21 23 24 25 25 24 16 5 7 8 8 9 9 9 9 9 8 12 10 8 4 2 3 1 2 3 4 7
4 4 3 3 3 4 4 5 5 6 8 9 13 17 20 22 23 24 24 20 7 7 3 8 9 8 9 9 9 9 10 9 9 7 7 6 6 6 3 4 4 6 7
3 2 2 2 3 3 4 5 5 6 7 8 9 11 9 20 23 22 20 2 7 9 7 7 8 8 8 9 9 9 10 9 9 8 6 6 5 4 6 5 6 8 9
2 5 4 3 3 4 4 5 6 5 6 7 7 8 7 9 7 6 2 3 5 7 7 8 8 8 8 9 9 10 8 9 8 4 4 5 5 5 6 6 5 7 7
2 3 4 4 4 4 5 5 6 6 7 8 8 8 21 12 9 8 8 7 7 8 9 9 9 9 9 9 9 9 9 9 9 6 7 7 6 6 4 5 6 7 7
2 3 3 4 5 5 5 6 7 7 8 9 9 9 22 8 8 9 9 9 9 9 8 9 9 9 9 9 9 9 10 10 9 8 8 7 6 4 5 5 6 6 6
2 4 4 4 4 7 7 6 7 8 8 8 9 9 9 8 8 9 10 10 9 10 9 9 9 9 9 9 9 9 9 9 8 8 9 8 6 6 6 6 6 6 6
3 5 5 6 5 6 7 8 8 10 9 8 9 9 9 9 9 10 10 10 10 10 10 10 10 12 11 10 9 8 8 8 8 8 9 8 8 8 6 6 6 7 7
4 4 5 5 6 7 8 9 9 9 8 9 9 9 9 9 10 10 10 10 10 10 11 11 9 12 13 15 13 14 14 16 12 12 8 9 11 11 8 6 7 7 7
5 5 5 5 6 7 8 9 9 9 9 9 9 10 10 10 10 10 10 11 10 10 12 10 11 14 15 13 15 16 16 16 14 14 10 9 8 7 6 7 8 6 8
Wind_Direction
186 186 183 187 194 194 191 202 195 194 198 194 192 209 209 207 211 206 223 229 258 277 282 273 285 282 271 276 277 256 242 228 258 277 271 301 304 304 313 309 315 312 313
192 186 192 188 187 193 205 210 198 207 203 200 204 218 222 223 217 223 235 242 250 261 263 267 265 270 265 262 258 252 244 235 255 276 281 286 289 297 295 300 309 308 312
178 184 188 195 192 200 205 212 207 209 203 209 197 212 221 222 222 226 228 235 240 240 245 248 254 253 258 245 243 248 244 267 260 261 276 272 278 288 289 287 294 301 305
179 187 197 192 202 200 204 207 206 210 202 216 221 217 223 224 226 233 236 234 239 245 243 239 242 240 248 248 247 245 254 253 261 265 272 276 269 289 280 287 305 306 308
185 185 205 203 193 204 212 206 215 210 212 219 218 250 251 236 235 233 238 233 240 250 246 243 244 240 253 253 245 243 237 252 259 269 277 280 273 291 294 298 293 300 301
177 209 207 198 206 208 219 221 209 221 225 225 225 234 249 245 255 259 258 226 234 238 254 245 240 243 251 264 268 270 262 250 256 266 275 277 284 283 291 286 291 302 315
73 51 40 37 53 44 36 57 49 46 36 8 343 311 282 279 294 289 285 260 238 239 244 254 253 243 239 245 264 273 274 270 268 271 269 264 276 276 278 282 279 275 284
64 55 45 40 40 38 53 41 27 35 31 5 332 325 306 298 318 312 305 280 252 250 247 248 250 263 244 248 254 258 256 250 252 260 259 263 260 260 259 266 233 266 289
45 51 34 28 41 34 36 24 13 11 357 334 298 312 307 302 321 321 317 287 278 257 241 235 242 261 263 271 272 269 267 256 252 261 261 261 262 268 280 310 310 343 299
37 28 27 26 30 33 23 8 343 333 295 319 320 299 298 297 317 325 323 293 293 295 288 241 254 252 270 277 269 263 265 264 251 251 255 266 272 281 275 279 276 257 265
19 25 20 21 24 18 3 358 331 324 329 329 313 307 305 293 309 323 323 308 276 290 281 280 241 272 286 287 283 273 270 277 265 260 246 239 221 235 239 234 220 220 239
28 38 24 17 21 10 5 357 341 348 340 324 321 313 304 303 319 327 324 323 313 308 300 295 261 279 283 283 285 275 274 278 269 268 246 236 234 233 228 216 217 219 233
40 33 16 16 18 6 5 350 352 350 347 328 328 318 313 305 297 324 319 315 315 310 302 297 306 311 309 309 296 291 293 282 277 262 259 258 224 217 169 216 250 248 256
43 27 9 17 3 360 359 358 345 349 338 325 323 329 317 317 310 308 299 305 310 310 303 293 289 300 305 299 302 295 283 275 272 270 268 267 262 175 206 180 221 206 272
33 15 9 7 0 357 360 341 342 319 309 325 317 305 317 320 311 312 316 311 309 305 310 311 313 319 319 316 303 289 283 276 262 260 264 268 258 246 246 181 203 263 230
32 20 8 356 352 354 343 330 333 331 330 322 322 323 318 315 314 315 319 314 311 311 329 350 322 317 311 311 310 308 305 301 296 272 266 268 262 247 240 222 151 199 269
26 5 356 357 352 350 341 334 326 326 325 323 323 324 319 313 319 318 315 312 316 346 336 320 306 304 301 300 299 302 307 323 327 304 280 280 283 278 270 273 248 244 272
1 350 347 333 327 318 314 310 305 306 314 312 318 319 319 322 318 316 314 320 346 337 289 296 295 294 295 295 295 297 298 307 307 301 302 302 293 283 271 261 257 266 275
324 297 317 297 286 290 300 292 283 284 285 289 304 307 306 312 314 312 317 7 310 303 293 287 287 292 294 296 295 297 292 291 290 295 300 288 275 245 262 257 271 269 276
317 302 316 296 296 296 283 275 280 271 277 283 289 289 302 301 291 291 293 278 282 284 286 283 286 287 289 293 295 290 301 306 296 265 266 272 267 255 267 268 270 283 281
281 283 271 283 277 266 264 265 274 281 281 281 282 284 295 303 319 308 298 291 283 282 283 285 289 288 287 288 290 295 294 295 294 284 290 285 274 269 244 258 273 280 278
261 271 272 269 283 284 279 280 282 279 278 280 287 289 302 304 286 288 288 287 287 282 279 281 284 284 284 285 288 290 293 293 294 292 288 281 276 260 264 267 273 273 276
280 290 288 282 274 284 287 279 279 277 277 278 283 291 291 289 285 285 287 289 290 289 287 283 281 283 283 281 281 281 282 286 287 285 285 284 281 274 270 264 272 281 282
272 271 277 285 284 285 282 283 279 275 274 283 286 285 287 286 283 282 283 284 286 286 286 284 282 280 282 280 284 283 281 281 276 273 271 271 270 274 270 263 266 268 272
256 263 264 272 276 277 287 289 289 288 286 282 283 284 285 282 281 282 282 282 283 282 283 285 282 284 279 282 282 286 283 285 278 271 267 258 258 262 261 257 265 272 263
250 251 250 269 277 280 282 288 288 285 284 284 283 284 286 288 286 286 287 289 288 291 297 293 292 297 298 294 290 286 286 287 285 273 252 242 247 251 247 250 258 262 270